Change the Weather History Date:

Monday, May 6, 2013

  Actual Average Record
Temperature  
Mean Temperature 52 °F 53 °F  
Max Temperature 59 °F 71 °F 80 °F (1997)
Min Temperature 44 °F 34 °F 27 °F (2003)
Degree Days  
Heating Degree Days 13 12  
Month to date heating degree days 79 78  
Since 1 July heating degree days 6222 6148  
Cooling Degree Days 0 0  
Month to date cooling degree days 0 0  
Year to date cooling degree days 0 0  
Moisture  
Dew Point 39 °F    
Average Humidity 60    
Maximum Humidity 86    
Minimum Humidity 33    
Precipitation  
Precipitation 0.55 in 0.04 in 0.55 in (2013)
Month to date precipitation 0.55 0.25  
Year to date precipitation 3.16 4.47  
Sea Level Pressure  
Sea Level Pressure 29.96 in    
Wind  
Wind Speed 5 mph (SE)    
Max Wind Speed 18 mph    
Max Gust Speed 28 mph    
Visibility 8 miles    
Events Rain , Thunderstorm    
T = Trace of Precipitation, MM = Missing Value Source: NWS Daily Summary

Daily Weather History Graph

Daily Weather History Graph

Search for Another Location

Airport or City:

Trip Planner

Search our weather history database for the weather conditions in past years. The results will help you decide how hot, cold, wet, or windy it might be!

Date:

Astronomy

May. 06, 2013 Rise Set
Actual Time 6:13 AM MDT 8:08 PM MDT
Civil Twilight 5:45 AM MDT 8:37 PM MDT
Nautical Twilight 5:10 AM MDT 9:12 PM MDT
Astronomical Twilight 4:33 AM MDT 9:49 PM MDT
Moon 4:13 AM MDT (5/6) 5:15 PM MDT (5/6)
Length of Visible Light 14h 51m
Length of Day
13h 55m
Waning Crescent, 10% of the Moon is Illuminated
May 6
Waning Crescent
May 9
New
May 17
First Quarter
May 24
Full
May 31
Last Quarter

Hourly Weather History & Observations

Time (MDT) Temp. Windchill Dew Point Humidity Pressure Visibility Wind Dir Wind Speed Gust Speed Precip Events Conditions
12:53 AM 57.9 °F - 28.9 °F 33% 29.84 in 10.0 mi SE 10.4 mph 21.9 mph N/A   Mostly Cloudy
1:53 AM 55.9 °F - 28.0 °F 34% 29.83 in 10.0 mi SSE 5.8 mph - N/A   Mostly Cloudy
2:53 AM 53.1 °F - 30.0 °F 41% 29.81 in 10.0 mi NNE 5.8 mph - N/A   Overcast
3:53 AM 55.9 °F - 30.0 °F 37% 29.82 in 10.0 mi SSE 13.8 mph 17.3 mph N/A   Overcast
4:11 AM 53.6 °F - 35.6 °F 51% 30.01 in 10.0 mi SE 12.7 mph 20.7 mph 0.00 in Rain Light Rain
4:53 AM 51.1 °F - 35.1 °F 54% 29.82 in 10.0 mi SE 5.8 mph - 0.00 in   Clear
5:53 AM 48.0 °F - 34.0 °F 58% 29.82 in 10.0 mi NE 5.8 mph - N/A   Overcast
6:53 AM 50.0 °F - 34.0 °F 54% 29.84 in 10.0 mi Calm Calm - N/A   Overcast
7:53 AM 54.0 °F - 35.1 °F 49% 29.86 in 10.0 mi Variable 3.5 mph - N/A   Overcast
8:53 AM 53.1 °F - 37.0 °F 55% 29.90 in 10.0 mi Calm Calm - N/A   Overcast
9:53 AM 52.0 °F - 37.0 °F 57% 29.92 in 10.0 mi Calm Calm - 0.00 in   Overcast
10:40 AM 46.4 °F 44.3 °F 42.8 °F 87% 30.08 in 2.0 mi NNE 4.6 mph - 0.08 in Rain Heavy Rain
10:53 AM 46.9 °F - 39.9 °F 77% 29.96 in 1.5 mi Variable 6.9 mph - 0.18 in Rain Heavy Rain
11:03 AM 46.4 °F 44.3 °F 41.0 °F 81% 30.10 in 1.8 mi WNW 4.6 mph - 0.07 in Rain Heavy Rain
11:14 AM 46.4 °F 43.5 °F 42.8 °F 87% 30.10 in 2.0 mi South 5.8 mph - 0.11 in Rain Light Rain
11:18 AM 46.4 °F 42.9 °F 42.8 °F 87% 30.10 in 3.0 mi SSW 6.9 mph - 0.12 in Rain Rain
11:53 AM 46.0 °F 44.8 °F 42.1 °F 86% 29.96 in 6.0 mi WSW 3.5 mph - 0.18 in Rain Light Rain
12:14 PM 46.4 °F 41.1 °F 42.8 °F 87% 30.11 in 4.0 mi SSW 11.5 mph - 0.02 in Rain Rain
12:31 PM 46.4 °F 41.5 °F 42.8 °F 87% 30.10 in 5.0 mi SW 10.4 mph - 0.05 in Rain Rain
12:47 PM 44.6 °F 42.2 °F 41.0 °F 87% 30.11 in 6.0 mi WSW 4.6 mph - 0.06 in Rain Rain
12:53 PM 46.0 °F 41.4 °F 42.1 °F 86% 29.99 in 4.0 mi South 9.2 mph - 0.08 in Rain Rain
1:01 PM 44.6 °F 40.7 °F 41.0 °F 87% 30.11 in 5.0 mi South 6.9 mph - 0.01 in Rain Rain
1:53 PM 45.0 °F - 39.9 °F 82% 29.98 in 10.0 mi Calm Calm - 0.05 in Rain Light Rain
2:53 PM 46.0 °F - 39.9 °F 79% 29.98 in 10.0 mi Calm Calm - 0.00 in Rain Light Rain
3:53 PM 52.0 °F - 44.1 °F 74% 29.92 in 10.0 mi NE 8.1 mph - 0.00 in   Partly Cloudy
4:53 PM 55.9 °F - 42.1 °F 60% 29.89 in 10.0 mi NE 5.8 mph - N/A   Clear
5:53 PM 57.9 °F - 39.0 °F 49% 29.88 in 10.0 mi ENE 3.5 mph - N/A   Clear
6:53 PM 55.9 °F - 37.0 °F 49% 29.88 in 10.0 mi Calm Calm - N/A   Clear
7:53 PM 55.0 °F - 39.9 °F 57% 29.90 in 10.0 mi SW 3.5 mph - N/A   Overcast
8:53 PM 53.1 °F - 41.0 °F 64% 29.90 in 10.0 mi NNE 3.5 mph - N/A Thunderstorm Scattered Clouds
9:36 PM 46.4 °F 44.3 °F 39.2 °F 76% 30.08 in 10.0 mi NNE 4.6 mph - 0.06 in Thunderstorm Overcast
9:53 PM 46.9 °F - 42.1 °F 83% 29.97 in 10.0 mi East 6.9 mph - 0.06 in Thunderstorm Overcast
10:53 PM 46.9 °F - 41.0 °F 80% 30.00 in 10.0 mi East 8.1 mph - 0.00 in Rain Light Rain
11:53 PM 45.0 °F 41.2 °F 39.9 °F 82% 30.00 in 10.0 mi ENE 6.9 mph - 0.00 in   Overcast